Location: Drocourt
(49.0571°N, 1.7669°E)
Time: 12:00:31
(UTC+00:00)

Transit 4A - Pass Details

Date: 14 April 2024
Orbit: 871 x 971 km, 66.8° (Epoch: 24 May)

Event Time Altitude Azimuth Distance (km) Brightness Sun altitude
Rises 00:47:23 0° 307° (NW) 3,468 11.2 -30.2°
Enters shadow 00:50:42 - 285° (WNW) 2,731 10.3 -30.1°
Reaches altitude 10° 00:52:42 10° 267° (W) 2,528 - -30.0°
Maximum altitude 00:53:22 10° 260° (W) 2,515 - -29.9°
Drops below altitude 10° 00:54:01 10° 253° (WSW) 2,529 - -29.9°
Sets 00:59:22 0° 213° (SSW) 3,479 - -29.6°
